CES6873 ZBAD-ZSSS

Flight info

Callsign CES6873
Flight time N/A
Altitude 35100
Route ELKUR4K ELKUR W40 YQG/K0817S1040 W142 DALIM/K0817S1070 A593 DPX A470 DALNU W166 ZJ W167 SASAN R343 PK
Aircraft A321/M-SDE3FGHIRWY/LB1

Departure

Time 2026-04-25 14:05
Airport Beijing Daxing International Airport (ZBAD)

Arrival

Time N/A
Airport Shanghai Hongqiao International Airport (ZSSS)
Time Latitude Longitude Altitude Speed Heading
2026-04-25 13:57 39.51048 116.40211 89 ft 2 kts 41°
2026-04-25 13:58 39.51037 116.40199 89 ft 2 kts 31°
2026-04-25 13:58 39.51023 116.40190 90 ft 2 kts 20°
2026-04-25 13:58 39.51009 116.40185 89 ft 2 kts 10°
2026-04-25 13:58 39.50994 116.40183 90 ft 2 kts 359°
2026-04-25 13:59 39.50985 116.40183 90 ft 1 kts 353°
2026-04-25 13:59 39.50980 116.40184 90 ft 0 kts 352°
2026-04-25 13:59 39.50981 116.40184 89 ft 0 kts 352°
2026-04-25 13:59 39.50984 116.40184 89 ft 0 kts 352°
2026-04-25 14:00 39.50989 116.40183 89 ft 2 kts 353°
2026-04-25 14:00 39.50998 116.40182 89 ft 0 kts 353°
2026-04-25 14:00 39.51031 116.40177 89 ft 9 kts 353°
2026-04-25 14:01 39.51110 116.40153 89 ft 12 kts 321°
2026-04-25 14:01 39.51158 116.40056 89 ft 14 kts 335°
2026-04-25 14:01 39.51288 116.40030 89 ft 23 kts 353°
2026-04-25 14:01 39.51457 116.40002 89 ft 24 kts 352°
2026-04-25 14:02 39.51627 116.39975 89 ft 26 kts 353°
2026-04-25 14:02 39.51777 116.39946 89 ft 15 kts 331°
2026-04-25 14:02 39.51798 116.39809 89 ft 20 kts 263°
2026-04-25 14:02 39.51787 116.39686 90 ft 21 kts 263°
2026-04-25 14:03 39.51763 116.39434 89 ft 21 kts 262°
2026-04-25 14:03 39.51744 116.39238 90 ft 22 kts 262°
2026-04-25 14:03 39.51727 116.39059 90 ft 18 kts 263°
2026-04-25 14:03 39.51710 116.38885 89 ft 19 kts 263°
2026-04-25 14:04 39.51630 116.38758 90 ft 18 kts 193°
2026-04-25 14:04 39.51492 116.38769 90 ft 32 kts 173°
2026-04-25 14:04 39.51020 116.38845 90 ft 102 kts 172°
2026-04-25 14:04 39.50111 116.38989 91 ft 159 kts 173°
2026-04-25 14:05 39.48935 116.39169 505 ft 172 kts 174°
2026-04-25 14:05 39.47751 116.39352 1270 ft 170 kts 176°
2026-04-25 14:05 39.46603 116.39528 2034 ft 168 kts 178°
2026-04-25 14:05 39.45411 116.39701 2503 ft 182 kts 178°
2026-04-25 14:06 39.44096 116.39889 2945 ft 199 kts 178°
2026-04-25 14:06 39.42645 116.40100 3304 ft 219 kts 178°
2026-04-25 14:06 39.41075 116.40336 3657 ft 238 kts 177°
2026-04-25 14:06 39.39381 116.40602 4116 ft 252 kts 176°
2026-04-25 14:07 39.37628 116.40935 4742 ft 260 kts 171°
2026-04-25 14:07 39.35842 116.41531 5396 ft 267 kts 168°
2026-04-25 14:07 39.34038 116.42199 6015 ft 274 kts 167°
2026-04-25 14:07 39.32205 116.42875 6637 ft 280 kts 167°
2026-04-25 14:08 39.30304 116.43566 7286 ft 285 kts 167°
2026-04-25 14:08 39.28370 116.44255 7917 ft 290 kts 167°
2026-04-25 14:08 39.26417 116.44946 8523 ft 295 kts 167°
2026-04-25 14:08 39.24427 116.45644 9115 ft 300 kts 167°
2026-04-25 14:09 39.22413 116.46345 9725 ft 304 kts 167°
2026-04-25 14:09 39.20354 116.47063 10254 ft 312 kts 167°
2026-04-25 14:09 39.18209 116.47807 10555 ft 328 kts 167°
2026-04-25 14:09 39.16720 116.48322 10740 ft 338 kts 167°
2026-04-25 14:10 39.14393 116.49129 11124 ft 349 kts 167°
2026-04-25 14:10 39.11256 116.50218 11919 ft 354 kts 167°
2026-04-25 14:10 39.08875 116.51045 12524 ft 357 kts 167°
2026-04-25 14:10 39.06453 116.51883 13107 ft 361 kts 167°
2026-04-25 14:11 39.04027 116.52723 13670 ft 364 kts 167°
2026-04-25 14:11 39.01581 116.53567 14224 ft 368 kts 167°
2026-04-25 14:11 38.99070 116.54433 14777 ft 371 kts 167°
2026-04-25 14:11 38.96593 116.55290 15318 ft 374 kts 167°
2026-04-25 14:12 38.94080 116.56154 15886 ft 376 kts 167°
2026-04-25 14:12 38.91526 116.57035 16425 ft 379 kts 167°
2026-04-25 14:12 38.88965 116.57917 16934 ft 382 kts 167°
2026-04-25 14:12 38.86406 116.58796 17449 ft 384 kts 167°
2026-04-25 14:13 38.83812 116.59687 17958 ft 387 kts 167°
2026-04-25 14:13 38.81191 116.60588 18446 ft 389 kts 167°
2026-04-25 14:13 38.78588 116.61481 18889 ft 393 kts 167°
2026-04-25 14:13 38.75941 116.62387 19323 ft 396 kts 167°
2026-04-25 14:14 38.73280 116.63300 19767 ft 399 kts 167°
2026-04-25 14:14 38.70565 116.64227 20221 ft 401 kts 167°
2026-04-25 14:14 38.67890 116.65144 20628 ft 405 kts 168°
2026-04-25 14:14 38.65099 116.65928 21027 ft 406 kts 175°
2026-04-25 14:15 38.62296 116.66226 21440 ft 405 kts 183°
2026-04-25 14:15 38.60421 116.66150 21709 ft 404 kts 188°
2026-04-25 14:15 38.56695 116.65736 22216 ft 408 kts 189°
2026-04-25 14:15 38.53872 116.65385 22578 ft 411 kts 190°
2026-04-25 14:16 38.51008 116.65031 22959 ft 414 kts 190°
2026-04-25 14:16 38.48125 116.64686 23324 ft 417 kts 189°
2026-04-25 14:16 38.45228 116.64348 23707 ft 419 kts 189°
2026-04-25 14:16 38.42350 116.64016 24067 ft 422 kts 190°
2026-04-25 14:17 38.39393 116.63676 24390 ft 426 kts 190°
2026-04-25 14:17 38.36420 116.63336 24741 ft 429 kts 190°
2026-04-25 14:17 38.33476 116.63001 25096 ft 431 kts 190°
2026-04-25 14:17 38.30441 116.62859 25416 ft 438 kts 183°
2026-04-25 14:18 38.27398 116.63239 25719 ft 446 kts 174°
2026-04-25 14:18 38.24376 116.64145 26041 ft 451 kts 168°
2026-04-25 14:18 38.21345 116.65281 26332 ft 455 kts 166°
2026-04-25 14:18 38.18310 116.66463 26603 ft 458 kts 166°
2026-04-25 14:19 38.15256 116.67635 26953 ft 459 kts 167°
2026-04-25 14:19 38.12191 116.68785 27281 ft 461 kts 167°
2026-04-25 14:19 38.09100 116.69942 27568 ft 464 kts 167°
2026-04-25 14:19 38.05976 116.71128 27845 ft 467 kts 167°
2026-04-25 14:20 38.02873 116.72311 28116 ft 469 kts 166°
2026-04-25 14:20 38.00775 116.73112 28320 ft 471 kts 166°
2026-04-25 14:20 37.96569 116.74715 28683 ft 474 kts 166°
2026-04-25 14:20 37.93425 116.75912 28955 ft 476 kts 166°
2026-04-25 14:21 37.90229 116.77126 29213 ft 479 kts 167°
2026-04-25 14:21 37.87064 116.78328 29469 ft 481 kts 166°
2026-04-25 14:21 37.83857 116.79545 29712 ft 483 kts 166°
2026-04-25 14:21 37.80617 116.80772 29949 ft 485 kts 166°
2026-04-25 14:22 37.77350 116.82009 30169 ft 488 kts 166°
2026-04-25 14:22 37.74114 116.83232 30370 ft 490 kts 166°
2026-04-25 14:22 37.70825 116.84474 30662 ft 490 kts 166°
2026-04-25 14:22 37.67540 116.85718 30929 ft 491 kts 166°
2026-04-25 14:23 37.64301 116.86938 31180 ft 492 kts 166°
2026-04-25 14:23 37.60981 116.88191 31448 ft 492 kts 166°
2026-04-25 14:23 37.57732 116.89414 31718 ft 492 kts 166°
2026-04-25 14:23 37.54442 116.90649 31923 ft 494 kts 167°
2026-04-25 14:24 37.51117 116.91898 32144 ft 496 kts 166°
2026-04-25 14:24 37.47815 116.93137 32393 ft 496 kts 166°
2026-04-25 14:24 37.44527 116.94375 32646 ft 496 kts 166°
2026-04-25 14:24 37.41206 116.95620 32888 ft 497 kts 166°
2026-04-25 14:25 37.37904 116.96856 33107 ft 498 kts 166°
2026-04-25 14:25 37.34562 116.98106 33287 ft 500 kts 166°
2026-04-25 14:25 37.31212 116.99357 33439 ft 502 kts 166°
2026-04-25 14:25 37.28982 117.00256 33567 ft 504 kts 164°